Stations météo

réclame
Mon MeteoGroup
Milano/Malpensa, Italie (16066): Température de l'air & dewpoint: 13.04.2018 23:00:00 - 19.04.2018 23:00:00 (CEST)Milano/Malpensa, Italie (16066): Vitesse du vent: 13.04.2018 23:00:00 - 19.04.2018 23:00:00 (CEST)Milano/Malpensa, Italie (16066): Direction du vent: 13.04.2018 23:00:00 - 19.04.2018 23:00:00 (CEST)Milano/Malpensa, Italie (16066): reduced air pressure: 13.04.2018 23:00:00 - 19.04.2018 23:00:00 (CEST)Milano/Malpensa, Italie (16066): visibility: 13.04.2018 23:00:00 - 19.04.2018 23:00:00 (CEST)Milano/Malpensa, Italie (16066): Quantités de précipitations: 13.04.2018 23:00:00 - 19.04.2018 23:00:00 (CEST)
Date & Time tt [°C] td [°C] ff [km/h] ff [knt] dd ppp [hPa] vv [km] rr [mm]
19.04.2018 23:00:00 15,1 9,9 5 3 NNE 1027,2 10 0,0
19.04.2018 22:00:00 19,0 10,0 4 2 - - 10 -
19.04.2018 21:00:00 20,0 9,0 5 3 S - 10 -
19.04.2018 20:00:00 21,4 8,4 8 4 S 1026,4 20 -
19.04.2018 19:00:00 23,0 8,0 11 6 SSE - 10 -
19.04.2018 18:00:00 24,0 7,0 8 4 S - 10 -
19.04.2018 17:00:00 24,3 7,2 8 4 S 1026,3 10 0,0
19.04.2018 16:00:00 24,0 9,0 5 3 - - 10 -
19.04.2018 15:00:00 24,0 8,0 11 6 SE - 10 -
19.04.2018 14:00:00 23,3 8,4 9 5 S 1028,2 10 -
19.04.2018 13:00:00 23,0 10,0 8 4 - - 10 -
19.04.2018 12:00:00 22,0 10,0 9 5 SSE - 10 -
19.04.2018 11:00:00 21,0 10,6 11 6 SE 1029,8 10 0,0
19.04.2018 10:00:00 20,0 10,0 11 6 ESE - 10 -
19.04.2018 09:00:00 17,0 9,0 8 4 N - 10 -
19.04.2018 08:00:00 13,9 9,5 8 4 N 1029,3 10 -
19.04.2018 07:00:00 10,0 7,0 8 4 ENE - 10 -
19.04.2018 06:00:00 12,0 8,0 9 5 N - 10 -
19.04.2018 05:00:00 10,1 7,2 11 6 N 1029,0 20 0,0
19.04.2018 04:00:00 12,0 8,0 9 5 N - 10 -
19.04.2018 03:00:00 11,0 8,0 9 5 N - 10 -
19.04.2018 02:00:00 12,0 8,4 9 5 NNE 1029,5 10 -
19.04.2018 01:00:00 14,0 9,0 9 5 N - 10 -
19.04.2018 00:00:00 15,0 9,0 8 4 NNE - 10 -
18.04.2018 23:00:00 15,6 8,3 5 3 NE 1029,1 10 0,0
18.04.2018 22:00:00 18,0 8,0 5 3 SSE - 10 -
18.04.2018 21:00:00 19,0 7,0 9 5 SSE - 10 -
18.04.2018 20:00:00 20,8 7,3 8 4 S 1027,3 10 -
18.04.2018 19:00:00 24,0 8,0 11 6 S - 10 -
18.04.2018 18:00:00 25,0 7,0 13 7 SW - 10 -
18.04.2018 17:00:00 24,6 10,0 13 7 SSW 1027,3 10 0,0
18.04.2018 16:00:00 25,0 11,0 9 5 S - 10 -
18.04.2018 15:00:00 24,0 11,0 9 5 SW - 10 -
18.04.2018 14:00:00 24,4 11,5 11 6 SW 1028,4 10 -
18.04.2018 13:00:00 24,0 10,0 5 3 - - 10 -
18.04.2018 12:00:00 23,0 10,0 4 2 - - 10 -
18.04.2018 11:00:00 21,8 9,3 4 2 - 1028,9 10 0,0
18.04.2018 10:00:00 20,0 8,0 5 3 NE - 10 -
18.04.2018 09:00:00 17,0 9,0 9 5 N - 10 -
18.04.2018 08:00:00 14,0 10,1 8 4 N 1028,3 10 -
18.04.2018 07:00:00 11,0 10,0 8 4 NNE - 10 -
18.04.2018 06:00:00 11,0 9,0 5 3 NNE - 10 -
18.04.2018 05:00:00 11,1 9,7 9 5 N 1027,1 10 0,0
18.04.2018 04:00:00 - - - - - - - -
18.04.2018 03:00:00 13,0 11,0 13 7 N - 10 -
18.04.2018 02:00:00 13,0 11,0 11 6 NNE - 10 -
18.04.2018 01:00:00 14,0 11,0 8 4 N - 10 -
18.04.2018 00:00:00 15,0 11,0 8 4 NE - 10 -
17.04.2018 23:00:00 16,1 11,1 5 3 ENE 1025,2 10 0,0
17.04.2018 22:00:00 - - - - - - - -
17.04.2018 21:00:00 20,0 11,0 9 5 SSE - 10 -
17.04.2018 20:00:00 20,7 10,5 8 4 S 1022,3 10 -
17.04.2018 19:00:00 23,0 10,0 9 5 S - 10 -
17.04.2018 18:00:00 24,0 10,0 9 5 SSW - 10 -
17.04.2018 17:00:00 24,3 11,6 8 4 - 1021,3 10 0,0
17.04.2018 16:00:00 24,0 11,0 8 4 SE - 10 -
17.04.2018 15:00:00 23,0 10,0 9 5 S - 10 -
17.04.2018 14:00:00 22,8 10,4 11 6 SE 1022,0 30 -
17.04.2018 13:00:00 22,0 11,0 11 6 SSE - 10 -
17.04.2018 12:00:00 21,0 11,0 8 4 SSE - 10 -
17.04.2018 11:00:00 20,3 10,1 9 5 SSE 1022,0 10 0,0
17.04.2018 10:00:00 19,0 6,0 5 3 NE - 10 -
17.04.2018 09:00:00 16,0 6,0 9 5 NNE - 10 -
17.04.2018 08:00:00 11,9 6,2 8 4 NNE 1020,1 10 -
17.04.2018 07:00:00 10,0 6,0 13 7 N - 10 -
17.04.2018 06:00:00 9,0 6,0 11 6 N - 10 -
17.04.2018 05:00:00 9,8 6,2 11 6 NNE 1017,8 10 0,0
17.04.2018 04:00:00 9,0 7,0 8 4 NE - 10 -
17.04.2018 03:00:00 12,0 7,0 4 2 - - 10 -
17.04.2018 02:00:00 10,4 8,0 9 5 N 1016,3 10 -
17.04.2018 01:00:00 12,0 9,0 13 7 N - 10 -
17.04.2018 00:00:00 13,0 9,0 9 5 NNE - 10 -
16.04.2018 23:00:00 14,2 9,4 8 4 NNE 1014,7 10 0,0
16.04.2018 22:00:00 16,0 10,0 5 3 N - 10 -
16.04.2018 21:00:00 20,0 9,0 5 3 SW - 10 -
16.04.2018 20:00:00 20,6 9,8 9 5 SSW 1012,0 10 -
16.04.2018 19:00:00 22,0 8,0 9 5 SSW - 10 -
16.04.2018 18:00:00 22,0 9,0 9 5 SW - 10 -
16.04.2018 17:00:00 22,3 8,5 13 7 SW 1011,1 10 0,0
16.04.2018 16:00:00 23,0 8,0 8 4 WSW - 10 -
16.04.2018 15:00:00 22,0 10,0 9 5 - - 10 -
16.04.2018 14:00:00 21,5 7,5 15 8 WSW 1011,5 10 -
16.04.2018 13:00:00 21,0 8,0 9 5 WSW - 10 -
16.04.2018 12:00:00 20,0 8,0 4 2 - - 10 -
16.04.2018 11:00:00 18,2 9,0 4 2 - 1011,9 10 0,0
16.04.2018 10:00:00 16,0 9,0 8 4 NNW - 10 -
16.04.2018 09:00:00 14,0 8,0 11 6 N - 10 -
16.04.2018 08:00:00 12,4 8,7 9 5 N 1011,3 10 -
16.04.2018 07:00:00 9,0 6,0 11 6 N - 10 -
16.04.2018 06:00:00 9,0 7,0 11 6 N - 10 -
16.04.2018 05:00:00 10,2 7,3 11 6 N 1010,0 10 0,0
16.04.2018 04:00:00 12,0 8,0 11 6 NNW - 10 -
16.04.2018 03:00:00 13,0 9,0 2 1 - - 10 -
16.04.2018 02:00:00 13,3 8,2 8 4 N 1010,5 10 -
16.04.2018 01:00:00 13,0 9,0 9 5 NNE - 10 -
16.04.2018 00:00:00 14,0 9,0 11 6 N - 10 -
15.04.2018 23:00:00 14,1 8,3 16 9 N 1010,9 10 0,0
15.04.2018 22:00:00 13,0 10,0 13 7 N - 10 -
15.04.2018 21:00:00 14,0 10,0 16 9 N - 10 -
15.04.2018 20:00:00 13,6 10,6 9 5 NNE 1011,7 10 -
15.04.2018 19:00:00 16,0 9,0 11 6 ENE - 10 -
15.04.2018 18:00:00 16,0 9,0 11 6 N - 10 -
15.04.2018 17:00:00 16,5 8,7 4 2 WNW 1010,9 20 0,0
15.04.2018 16:00:00 17,0 7,0 4 2 - - 10 -
15.04.2018 15:00:00 18,0 7,0 9 5 NW - 10 -
15.04.2018 14:00:00 18,4 5,8 11 6 N 1011,8 10 -
15.04.2018 13:00:00 17,0 7,0 15 8 N - 10 -
15.04.2018 12:00:00 16,0 7,0 2 1 - - 10 -
15.04.2018 11:00:00 14,7 6,8 9 5 N 1014,1 10 0,0
15.04.2018 10:00:00 14,0 6,0 9 5 N - 10 -
15.04.2018 09:00:00 14,0 6,0 16 9 N - 10 -
15.04.2018 08:00:00 11,8 6,2 15 8 N 1014,7 10 -
15.04.2018 07:00:00 10,0 6,0 11 6 N - 10 -
15.04.2018 06:00:00 9,0 6,0 13 7 N - 10 -
15.04.2018 05:00:00 10,3 6,2 16 9 N 1015,4 10 0,0
15.04.2018 04:00:00 9,0 6,0 15 8 N - 10 -
15.04.2018 03:00:00 9,0 6,0 11 6 N - 10 -
15.04.2018 02:00:00 9,0 6,7 15 8 N 1017,5 10 -
15.04.2018 01:00:00 9,0 6,0 5 3 NNE - 10 -
15.04.2018 00:00:00 10,0 7,0 4 2 N - 10 -
14.04.2018 23:00:00 10,1 7,1 8 4 NE 1018,5 10 0,0
14.04.2018 22:00:00 12,0 8,0 5 3 N - 10 -
14.04.2018 21:00:00 16,0 8,0 4 2 - - 10 -
14.04.2018 20:00:00 16,6 8,1 11 6 W 1019,1 10 -
14.04.2018 19:00:00 17,0 8,0 11 6 W - 10 -
14.04.2018 18:00:00 18,0 7,0 13 7 WSW - 10 -
14.04.2018 17:00:00 18,8 5,8 8 4 S 1019,1 10 0,0
14.04.2018 16:00:00 19,0 6,0 11 6 SSW - 10 -
14.04.2018 15:00:00 20,0 3,0 4 2 - - 10 -
14.04.2018 14:00:00 19,4 4,1 8 4 S 1020,8 10 -
14.04.2018 13:00:00 19,0 4,0 9 5 E - 10 -
14.04.2018 12:00:00 18,0 6,0 4 2 - - 10 -
14.04.2018 11:00:00 16,3 5,3 8 4 N 1021,7 20 0,0
14.04.2018 10:00:00 14,0 6,0 11 6 N - 10 -
14.04.2018 09:00:00 11,0 7,0 13 7 N - 10 -
14.04.2018 08:00:00 9,2 6,2 9 5 NNE 1022,0 10 -
14.04.2018 07:00:00 7,0 5,0 11 6 N - 10 -
14.04.2018 06:00:00 7,0 6,0 13 7 N - 10 -
14.04.2018 05:00:00 6,9 5,4 9 5 N 1021,2 10 0,0
14.04.2018 04:00:00 7,0 6,0 9 5 N - 10 -
14.04.2018 03:00:00 7,0 5,0 9 5 N - 10 -
14.04.2018 02:00:00 9,1 6,2 8 4 N 1020,9 10 -
14.04.2018 01:00:00 9,0 7,0 13 7 N - 10 -
14.04.2018 00:00:00 8,0 6,0 9 5 NNE - 10 -
13.04.2018 23:00:00 8,8 6,1 9 5 N 1019,6 10 0,0

tt = Température de l'air
td = dewpoint
ff = Vitesse du vent
dd = Direction du vent
ppp = reduced air pressure
vv = visibility
rr = Quantités de précipitations

stations d'obs. à proximité